Edinburgh Airport, United Kingdom

1:50 AM GMT on February 11, 2016 (GMT +0000)
Edinburgh Airport

Weather History for EGPH - October, 2012

Change the Weather History Date:

Wednesday, October 10, 2012

  Actual Average Record
Temperature  
Mean Temperature 40 °F -  
Max Temperature 53 °F 53 °F 62 °F (1999)
Min Temperature 28 °F 41 °F 28 °F (2012)
Degree Days  
Heating Degree Days 24    
Moisture  
Dew Point 36 °F    
Average Humidity 88    
Maximum Humidity 100    
Minimum Humidity 62    
Precipitation  
Precipitation 0.00 in 0.08 in - ()
Sea Level Pressure  
Sea Level Pressure 29.94 in    
Wind  
Wind Speed 2 mph ()    
Max Wind Speed 9 mph    
Max Gust Speed -    
Visibility 5.9 miles    
Events Fog    
Averages and records for this station are not official NWS values.
T = Trace of Precipitation, MM = Missing Value Source: Averaged Metar Reports

Daily Weather History Graph

Daily Weather History Graph

Search for Another Location

Airport or City:

Trip Planner

Search our weather history database for the weather conditions in past years. The results will help you decide how hot, cold, wet, or windy it might be!

Date:

Astronomy

Oct. 10, 2012 Rise Set
Actual Time 7:35 AM BST 6:24 PM BST
Civil Twilight 6:57 AM BST 7:01 PM BST
Nautical Twilight 6:14 AM BST 7:44 PM BST
Astronomical Twilight 5:31 AM BST 8:28 PM BST
Moon 1:00 AM BST (10/10) 4:07 PM BST (10/10)
Length of Visible Light 12h 03m
Length of Day
10h 49m
Waning Crescent, 29% of the Moon is Illuminated
Oct 10
Waning Crescent
Oct 15
New
Oct 22
First Quarter
Oct 29
Full
Nov 7
Last Quarter

Hourly Weather History & Observations

Time (BST) Temp. Windchill Dew Point Humidity Pressure Visibility Wind Dir Wind Speed Gust Speed Precip Events Conditions
12:20 AM 33.8 °F - 32.0 °F 93% 30.04 in - WNW 2.3 mph - N/A   Clear
12:50 AM 33.8 °F - 32.0 °F 93% 30.04 in - SW 2.3 mph - N/A   Clear
1:20 AM 32.0 °F 28.7 °F 32.0 °F 100% 30.04 in - SW 3.5 mph - N/A   Clear
1:50 AM 33.8 °F - 32.0 °F 93% 30.04 in - SSW 2.3 mph - N/A   Clear
2:20 AM 32.0 °F - 32.0 °F 100% 30.04 in - WSW 2.3 mph - N/A   Clear
2:50 AM 32.0 °F - 30.2 °F 93% 30.01 in 5.6 mi Calm Calm - N/A   Unknown
3:20 AM 32.0 °F - 30.2 °F 93% 30.01 in 4.3 mi West 2.3 mph - N/A   Unknown
3:50 AM 30.2 °F - 28.4 °F 93% 30.01 in - Calm Calm - N/A   Haze
4:20 AM 30.2 °F - 28.4 °F 93% 30.01 in - Calm Calm - N/A   Clear
4:50 AM 30.2 °F - 28.4 °F 93% 30.01 in - SSW 2.3 mph - N/A   Clear
5:20 AM 28.4 °F - 28.4 °F 100% 30.01 in - Calm Calm - N/A   Clear
5:50 AM 28.4 °F - 28.4 °F 100% 29.98 in - Calm Calm - N/A   Clear
6:20 AM 30.2 °F - 28.4 °F 93% 29.98 in 6.2 mi NNW 2.3 mph - N/A Fog Patches of Fog
6:50 AM 28.4 °F 24.6 °F 28.4 °F 100% 29.98 in 1.2 mi WSW 3.5 mph - N/A Fog Patches of Fog
7:20 AM 30.2 °F - 28.4 °F 93% 29.98 in 6.2 mi Variable 2.3 mph - N/A Fog Unknown
7:50 AM 30.2 °F - 28.4 °F 93% 30.01 in 6.2 mi Calm Calm - N/A Fog Unknown
8:20 AM 32.0 °F - 30.2 °F 93% 30.01 in 6.2 mi Calm Calm - N/A Fog Unknown
8:50 AM 32.0 °F - 32.0 °F 100% 30.01 in 6.2 mi Calm Calm - N/A Fog Unknown
9:20 AM 33.8 °F - 32.0 °F 93% 30.01 in 6.2 mi Calm Calm - N/A Fog Unknown
9:50 AM 35.6 °F - 35.6 °F 100% 30.01 in 6.2 mi Calm Calm - N/A Fog Unknown
10:20 AM 39.2 °F - 39.2 °F 100% 30.01 in 6.2 mi Calm Calm - N/A Fog Unknown
10:50 AM 41.0 °F - 39.2 °F 93% 29.98 in 6.2 mi Calm Calm - N/A   Unknown
11:20 AM 44.6 °F - 39.2 °F 81% 29.98 in - Variable 2.3 mph - N/A   Clear
11:50 AM 46.4 °F - 41.0 °F 81% 29.98 in - Variable 2.3 mph - N/A   Clear
12:20 PM 48.2 °F - 41.0 °F 76% 29.95 in - Variable 3.5 mph - N/A   Clear
12:50 PM 50.0 °F - 41.0 °F 71% 29.95 in - Variable 2.3 mph - N/A   Clear
1:20 PM 51.8 °F - 41.0 °F 67% 29.95 in - Variable 2.3 mph - N/A   Clear
1:50 PM 53.6 °F - 41.0 °F 62% 29.92 in - Variable 2.3 mph - N/A   Clear
2:20 PM 53.6 °F - 41.0 °F 62% 29.92 in - ENE 5.8 mph - N/A   Clear
2:50 PM 51.8 °F - 41.0 °F 67% 29.92 in 6.2 mi NE 6.9 mph - N/A   Partly Cloudy
3:20 PM 50.0 °F - 41.0 °F 71% 29.89 in 6.2 mi NE 6.9 mph - N/A   Partly Cloudy
3:50 PM 51.8 °F - 41.0 °F 67% 29.89 in 6.2 mi ENE 9.2 mph - N/A   Partly Cloudy
4:20 PM 50.0 °F - 41.0 °F 71% 29.89 in 6.2 mi NE 8.1 mph - N/A   Partly Cloudy
4:50 PM 50.0 °F - 41.0 °F 71% 29.89 in - NE 5.8 mph - N/A   Clear
5:50 PM 48.2 °F - 41.0 °F 76% 29.86 in - NE 4.6 mph - N/A   Clear
6:20 PM 46.4 °F 44.3 °F 41.0 °F 81% 29.86 in - NE 4.6 mph - N/A   Clear
6:50 PM 42.8 °F 41.1 °F 39.2 °F 87% 29.86 in - NE 3.5 mph - N/A   Clear
7:20 PM 41.0 °F 39.0 °F 39.2 °F 93% 29.86 in - WSW 3.5 mph - N/A   Clear
7:50 PM 41.0 °F - 39.2 °F 93% 29.86 in - Calm Calm - N/A   Clear
8:20 PM 39.2 °F - 37.4 °F 93% 29.86 in 6.2 mi Calm Calm - N/A   Partly Cloudy
8:50 PM 41.0 °F - 39.2 °F 93% 29.83 in 6.2 mi Variable 2.3 mph - N/A   Overcast
9:20 PM 42.8 °F - 41.0 °F 93% 29.83 in 6.2 mi Calm Calm - N/A   Mostly Cloudy
9:50 PM 42.8 °F - 41.0 °F 93% 29.83 in 6.2 mi Variable 2.3 mph - N/A   Mostly Cloudy
10:20 PM 42.8 °F - 41.0 °F 93% 29.80 in 6.2 mi Calm Calm - N/A   Mostly Cloudy
10:50 PM 44.6 °F - 42.8 °F 93% 29.80 in 6.2 mi Calm Calm - N/A   Mostly Cloudy
11:20 PM 44.6 °F - 42.8 °F 93% 29.80 in 6.2 mi Calm Calm - N/A   Mostly Cloudy
11:50 PM 44.6 °F - 42.8 °F 93% 29.77 in 6.2 mi Calm Calm - N/A   Overcast